Flag for Germany Weather past 2 weeks in Buchholz in der Nordheide, Lower Saxony, Germany

Now
77 °F

Scattered clouds.


Feels Like: 79 °F
Forecast: 62 / 79 °F
Wind: 15 mph from Northeast

Location: Hamburg-Finkenwerder

Current Time: Jul 22, 2014 at 12:07:56 PM

Latest Report: Jul 22, 2014 at 11:20 AM


Visibility: N/A

Pressure: 30.07 "Hg

Humidity: 57%

Dew point: 61 °F

Location of Buchholz in der NordheideLocation

Historic Weather in Buchholz in der Nordheide — Graph

°F

Buchholz in der Nordheide temperature yesterday

Maximum temperature yesterday: 84 °F (at 2:50 PM)
Minimum temperature yesterday: 68 °F (at 5:20 AM)
Average temperature yesterday: 77 °F

Past Weeks' High & Low Weather Summary

 TemperatureHumidityPressure
High86 °F (Jul 18, 3:20 PM)100% (Jul 8, 11:20 AM)30.18 "Hg (Jul 8, 11:20 AM)
Low54 °F (Jul 17, 5:20 AM)40% (Jul 18, 3:50 PM)29.59 "Hg (Jul 9, 2:50 PM)
Average72 °F69%29.94 "Hg
* Reported Jul 7 10:20 AM — Jul 22 10:50 AM, Buchholz in der Nordheide, Weather by CustomWeather, © 2014

Note: Actual official high and low records may vary slightly from our data, if they occured in-between our weather recording intervals... More about our weather records

Advertising

Buchholz in der Nordheide weather history for previous 24 hours

 ConditionsComfort  
Time TempWeatherWind HumidityBarometerVisibility
10:50 AM
Jul 22
77 °FSunny.17 mph61%30.07 "Hg10 mi
10:20 AM73 °FSunny.15 mph69%30.07 "Hg10 mi
9:50 AM73 °FScattered clouds.12 mph69%30.09 "HgN/A
9:20 AM72 °FScattered clouds.14 mph73%30.07 "HgN/A
8:50 AM70 °FScattered clouds.10 mph78%30.07 "HgN/A
8:20 AM68 °FScattered clouds.10 mph83%30.07 "HgN/A
7:50 AM66 °FScattered clouds.9 mph88%30.07 "HgN/A
7:20 AM66 °FPassing clouds.12 mph88%30.07 "HgN/A
6:50 AM64 °FPassing clouds.13 mph88%30.04 "HgN/A
6:20 AM64 °FPassing clouds.14 mph88%30.04 "HgN/A
5:50 AM64 °FPassing clouds.15 mph88%30.04 "Hg6 mi
7:50 PM
Jul 21
77 °FSunny.18 mph54%29.95 "Hg10 mi
7:20 PM77 °FSunny.21 mph54%29.92 "Hg10 mi
6:50 PM79 °FSunny.17 mph51%29.92 "Hg10 mi
6:20 PM79 °FSunny.16 mph51%29.92 "Hg10 mi
5:50 PM81 °FSunny.17 mph48%29.92 "Hg10 mi
5:20 PM82 °FSunny.16 mph48%29.89 "Hg10 mi
4:50 PM82 °FSunny.17 mph48%29.89 "Hg10 mi
4:20 PM82 °FSunny.17 mph51%29.89 "Hg10 mi
3:50 PM84 °FPassing clouds.17 mph48%29.89 "HgN/A
3:20 PM84 °FSunny.16 mph51%29.89 "Hg10 mi
2:50 PM84 °FPassing clouds.10 mph48%29.89 "HgN/A
2:20 PM82 °FPassing clouds.14 mph48%29.86 "HgN/A
1:50 PM82 °FPassing clouds.15 mph51%29.86 "HgN/A
1:20 PM82 °FPassing clouds.13 mph51%29.86 "HgN/A
12:50 PM82 °FPassing clouds.12 mph51%29.86 "HgN/A
12:20 PM81 °FPassing clouds.10 mph58%29.86 "HgN/A
Weather by CustomWeather, © 2014

See weather overviewHow to use our weather pages